Weather History for Santa Fe, NM

Change the Weather History Date:

Saturday, November 10, 2012

  Actual Average Record
Temperature  
Mean Temperature 39 °F -  
Max Temperature 50 °F 52 °F 70 °F (2005)
Min Temperature 28 °F 21 °F 10 °F (1977)
Degree Days  
Heating Degree Days 26    
Moisture  
Dew Point 27 °F    
Average Humidity 61    
Maximum Humidity 82    
Minimum Humidity 30    
Precipitation  
Precipitation 0.02 in - - ()
Sea Level Pressure  
Sea Level Pressure 29.69 in    
Wind  
Wind Speed 13 mph (SW)    
Max Wind Speed 25 mph    
Max Gust Speed 45 mph    
Visibility 10 miles    
Events Rain    
Averages and records for this station are not official NWS values.
T = Trace of Precipitation, MM = Missing Value Source: NWS Daily Summary

Daily Weather History Graph

Daily Weather History Graph

Search for Another Location

Airport:

Trip Planner

Search our weather history database for the weather conditions in past years. The results will help you decide how hot, cold, wet, or windy it might be!

Date:

Astronomy

Nov. 10, 2012 Rise Set
Actual Time 6:35 AM MST 5:00 PM MST
Civil Twilight 6:08 AM MST 5:27 PM MST
Nautical Twilight 5:38 AM MST 5:58 PM MST
Astronomical Twilight 5:08 AM MST 6:28 PM MST
Moon 2:50 AM MST (11/10) 2:43 PM MST (11/10)
Length of Visible Light 11h 18m
Length of Day
10h 25m
Waning Crescent, 14% of the Moon is Illuminated
Nov 10
Waning Crescent
Nov 13
New
Nov 20
First Quarter
Nov 28
Full
Dec 6
Last Quarter

Hourly Weather History & Observations

Time (MST) Temp. Windchill Dew Point Humidity Pressure Visibility Wind Dir Wind Speed Gust Speed Precip Events Conditions
12:53 AM 45.0 °F 39.7 °F 39.9 °F 82% 29.69 in 10.0 mi SE 10.4 mph - 0.00 in   Mostly Cloudy
1:53 AM 45.0 °F 39.7 °F 39.0 °F 80% 29.64 in 10.0 mi SE 10.4 mph - N/A   Scattered Clouds
2:53 AM 45.0 °F 38.2 °F 39.9 °F 82% 29.63 in 10.0 mi SE 15.0 mph - N/A   Overcast
3:53 AM 44.1 °F 37.4 °F 37.9 °F 79% 29.62 in 10.0 mi SE 13.8 mph - N/A   Overcast
4:53 AM 45.0 °F 39.3 °F 37.0 °F 74% 29.60 in 10.0 mi SSE 11.5 mph - N/A   Overcast
5:53 AM 46.0 °F 43.9 °F 37.0 °F 71% 29.59 in 10.0 mi SW 4.6 mph - N/A   Overcast
6:53 AM 48.0 °F - 37.9 °F 68% 29.58 in 10.0 mi SSW 11.5 mph 18.4 mph N/A   Overcast
7:53 AM 48.9 °F - 37.0 °F 64% 29.59 in 10.0 mi SSW 16.1 mph 21.9 mph N/A   Overcast
8:53 AM 50.0 °F - 33.1 °F 52% 29.57 in 10.0 mi SW 25.3 mph 44.9 mph N/A   Overcast
9:13 AM 44.6 °F 37.8 °F 35.6 °F 71% 29.76 in 10.0 mi West 15.0 mph 28.8 mph 0.00 in Rain Light Rain
9:53 AM 42.1 °F 34.9 °F 35.1 °F 76% 29.65 in 10.0 mi WSW 13.8 mph - 0.01 in Rain Light Rain
10:02 AM 41.0 °F 34.7 °F 35.6 °F 81% 29.78 in 10.0 mi SW 10.4 mph - 0.00 in Rain Light Rain
10:17 AM 41.0 °F 34.3 °F 35.6 °F 81% 29.78 in 10.0 mi SSW 11.5 mph - 0.00 in Rain Light Rain
10:53 AM 44.1 °F 35.9 °F 30.9 °F 60% 29.67 in 10.0 mi WSW 19.6 mph - 0.00 in Rain Light Rain
11:53 AM 45.0 °F 36.9 °F 28.0 °F 52% 29.66 in 10.0 mi WSW 20.7 mph 28.8 mph 0.00 in   Partly Cloudy
12:53 PM 42.1 °F 32.3 °F 21.9 °F 45% 29.65 in 10.0 mi West 24.2 mph 31.1 mph 0.01 in Rain Light Rain
1:53 PM 41.0 °F 31.9 °F 18.0 °F 40% 29.66 in 10.0 mi West 19.6 mph 34.5 mph 0.00 in   Overcast
2:53 PM 39.9 °F 31.1 °F 15.1 °F 36% 29.67 in 10.0 mi West 17.3 mph 26.5 mph N/A   Overcast
3:53 PM 39.9 °F 30.0 °F 10.9 °F 31% 29.68 in 10.0 mi West 21.9 mph 32.2 mph N/A   Overcast
4:53 PM 37.9 °F 28.9 °F 9.0 °F 30% 29.69 in 10.0 mi West 16.1 mph - N/A   Clear
5:53 PM 35.1 °F 25.5 °F 14.0 °F 42% 29.73 in 10.0 mi West 15.0 mph 26.5 mph N/A   Scattered Clouds
6:53 PM 30.9 °F 23.5 °F 14.0 °F 50% 29.75 in 10.0 mi West 8.1 mph - N/A   Partly Cloudy
7:53 PM 28.9 °F 23.9 °F 15.1 °F 56% 29.76 in 10.0 mi WNW 4.6 mph - N/A   Mostly Cloudy
9:53 PM 30.0 °F 22.4 °F 19.0 °F 64% 29.82 in 10.0 mi SW 8.1 mph - N/A   Overcast
10:53 PM 30.0 °F 22.4 °F 19.0 °F 64% 29.81 in 10.0 mi WSW 8.1 mph - N/A   Overcast
11:53 PM 30.0 °F 22.4 °F 19.0 °F 64% 29.80 in 10.0 mi WSW 8.1 mph - N/A   Overcast